TimeCST,TemperatureF,Dew PointF,Humidity,Sea Level PressureIn,VisibilityMPH,Wind Direction,Wind SpeedMPH,Gust SpeedMPH,PrecipitationIn,Events,Conditions,WindDirDegrees,DateUTC
12:53 AM,17.1,12.0,81,30.06,10.0,West,5.8,-,N/A,,Clear,260,2012-12-07 06:53:00
1:53 AM,17.1,12.9,84,30.06,10.0,WNW,5.8,-,N/A,,Clear,290,2012-12-07 07:53:00
2:53 AM,16.0,12.0,84,30.07,10.0,NW,4.6,-,N/A,,Clear,320,2012-12-07 08:53:00
3:53 AM,15.1,10.9,84,30.07,10.0,NNW,5.8,-,N/A,,Clear,330,2012-12-07 09:53:00
4:53 AM,12.0,9.0,88,30.08,10.0,NW,4.6,-,N/A,,Clear,320,2012-12-07 10:53:00
5:53 AM,17.1,12.9,84,30.08,10.0,North,9.2,-,N/A,,Clear,360,2012-12-07 11:53:00
6:53 AM,16.0,10.9,81,30.09,10.0,North,5.8,-,N/A,,Clear,360,2012-12-07 12:53:00
7:53 AM,15.1,10.0,80,30.12,10.0,North,6.9,-,N/A,,Clear,350,2012-12-07 13:53:00
8:53 AM,15.1,9.0,77,30.13,10.0,NNE,9.2,-,N/A,,Clear,30,2012-12-07 14:53:00
9:53 AM,16.0,9.0,74,30.14,10.0,NE,6.9,-,N/A,,Scattered Clouds,50,2012-12-07 15:53:00
10:53 AM,18.0,10.9,74,30.14,10.0,NNE,6.9,-,N/A,,Overcast,30,2012-12-07 16:53:00
11:53 AM,19.0,10.9,71,30.13,10.0,NE,8.1,-,N/A,,Overcast,40,2012-12-07 17:53:00
12:53 PM,19.0,10.9,71,30.12,10.0,NE,8.1,-,N/A,,Overcast,50,2012-12-07 18:53:00
1:53 PM,19.9,10.9,68,30.11,10.0,NNE,8.1,-,N/A,,Overcast,30,2012-12-07 19:53:00
2:53 PM,19.9,10.9,68,30.12,9.0,NNE,9.2,-,N/A,,Overcast,30,2012-12-07 20:53:00
3:53 PM,19.9,12.0,71,30.12,10.0,NE,11.5,-,N/A,,Overcast,40,2012-12-07 21:53:00
4:53 PM,19.9,12.0,71,30.12,10.0,NNE,8.1,-,N/A,,Overcast,30,2012-12-07 22:53:00
5:21 PM,21.2,10.4,63,30.07,10.0,NNE,9.2,-,N/A,,Overcast,30,2012-12-07 23:21:00
5:53 PM,21.0,10.9,65,30.12,10.0,NNE,10.4,-,N/A,,Overcast,30,2012-12-07 23:53:00
6:53 PM,21.2,10.4,63,30.07,10.0,NNE,6.9,-,N/A,,Overcast,30,2012-12-08 00:53:00
7:53 PM,21.0,10.9,65,30.13,10.0,NNE,8.1,-,N/A,,Overcast,30,2012-12-08 01:53:00
8:44 PM,19.4,10.4,68,30.07,10.0,North,6.9,-,N/A,,Overcast,360,2012-12-08 02:44:00
8:53 PM,19.9,10.9,68,30.13,10.0,NNE,9.2,-,N/A,,Overcast,30,2012-12-08 02:53:00
9:33 PM,19.4,10.4,68,30.06,10.0,NNE,9.2,-,N/A,,Overcast,30,2012-12-08 03:33:00
9:53 PM,19.9,10.9,68,30.12,10.0,NNE,10.4,-,N/A,,Overcast,30,2012-12-08 03:53:00
10:53 PM,19.9,10.9,68,30.11,10.0,NE,6.9,-,N/A,,Overcast,40,2012-12-08 04:53:00
11:53 PM,19.9,10.9,68,30.11,10.0,NNE,6.9,-,N/A,,Overcast,30,2012-12-08 05:53:00